Time,TemperatureF,DewpointF,PressureIn,WindDirection,WindDirectionDegrees,WindSpeedMPH,WindSpeedGustMPH,Humidity,HourlyPrecipIn,Conditions,Clouds,dailyrainin,SoftwareType,DateUTC
2013-04-27 00:02:00,52.0,43.0,30.28,SSE,160,3.0,-999.0,71,-99.99,,,-99.99,,2013-04-27 05:02:00,
2013-04-27 00:12:00,52.0,43.0,30.28,SSE,160,3.0,-999.0,71,-99.99,,,-99.99,,2013-04-27 05:12:00,
2013-04-27 00:22:00,52.0,43.0,30.28,SE,140,5.0,-999.0,71,-99.99,,,-99.99,,2013-04-27 05:22:00,
2013-04-27 00:32:00,52.0,43.0,30.28,North,0,0.0,-999.0,71,-99.99,,,-99.99,,2013-04-27 05:32:00,
2013-04-27 00:42:00,52.0,43.0,30.28,South,180,5.0,-999.0,71,-99.99,,,-99.99,,2013-04-27 05:42:00,
2013-04-27 00:52:00,50.0,43.0,30.28,South,170,3.0,-999.0,76,-99.99,,,-99.99,,2013-04-27 05:52:00,
2013-04-27 01:02:00,50.0,43.0,30.28,North,0,0.0,-999.0,76,-99.99,,,-99.99,,2013-04-27 06:02:00,
2013-04-27 01:12:00,50.0,43.0,30.28,North,0,0.0,-999.0,76,-99.99,,,-99.99,,2013-04-27 06:12:00,
2013-04-27 01:22:00,52.0,43.0,30.27,North,0,0.0,-999.0,71,-99.99,,,-99.99,,2013-04-27 06:22:00,
2013-04-27 01:32:00,50.0,43.0,30.27,South,170,3.0,-999.0,76,-99.99,,,-99.99,,2013-04-27 06:32:00,
2013-04-27 01:41:00,50.0,43.0,30.26,South,170,3.0,-999.0,76,-99.99,,,-99.99,,2013-04-27 06:41:00,
2013-04-27 01:52:00,50.0,43.0,30.26,SSE,160,5.0,-999.0,76,-99.99,,,-99.99,,2013-04-27 06:52:00,
2013-04-27 02:01:00,50.0,43.0,30.27,North,0,0.0,-999.0,76,-99.99,,,-99.99,,2013-04-27 07:01:00,
2013-04-27 02:11:00,50.0,43.0,30.27,North,0,0.0,-999.0,76,-99.99,,,-99.99,,2013-04-27 07:11:00,
2013-04-27 02:21:00,48.0,43.0,30.26,South,190,3.0,-999.0,81,-99.99,,,-99.99,,2013-04-27 07:21:00,
2013-04-27 02:32:00,48.0,43.0,30.26,South,170,5.0,-999.0,81,-99.99,,,-99.99,,2013-04-27 07:32:00,
2013-04-27 02:42:00,48.0,43.0,30.25,SSE,150,3.0,-999.0,81,-99.99,,,-99.99,,2013-04-27 07:42:00,
2013-04-27 02:52:00,50.0,43.0,30.25,North,0,0.0,-999.0,76,-99.99,,,-99.99,,2013-04-27 07:52:00,
2013-04-27 03:01:00,50.0,43.0,30.24,SSE,150,3.0,-999.0,76,-99.99,,,-99.99,,2013-04-27 08:01:00,
2013-04-27 03:11:00,50.0,43.0,30.24,SSE,150,3.0,-999.0,76,-99.99,,,-99.99,,2013-04-27 08:11:00,
2013-04-27 03:21:00,48.0,41.0,30.23,North,0,0.0,-999.0,76,-99.99,,,-99.99,,2013-04-27 08:21:00,
2013-04-27 03:33:00,48.0,43.0,30.23,North,0,0.0,-999.0,81,-99.99,,,-99.99,,2013-04-27 08:33:00,
2013-04-27 03:41:00,48.0,43.0,30.23,North,0,0.0,-999.0,81,-99.99,,,-99.99,,2013-04-27 08:41:00,
2013-04-27 03:52:00,46.0,43.0,30.23,North,0,0.0,-999.0,87,-99.99,,,-99.99,,2013-04-27 08:52:00,
2013-04-27 04:01:00,48.0,43.0,30.23,North,0,0.0,-999.0,81,-99.99,,,-99.99,,2013-04-27 09:01:00,
2013-04-27 04:11:00,48.0,43.0,30.23,North,0,0.0,-999.0,81,-99.99,,,-99.99,,2013-04-27 09:11:00,
2013-04-27 04:21:00,48.0,43.0,30.21,ESE,110,3.0,-999.0,81,-99.99,,,-99.99,,2013-04-27 09:21:00,
2013-04-27 04:33:00,48.0,45.0,30.22,North,0,0.0,-999.0,87,-99.99,,,-99.99,,2013-04-27 09:33:00,
2013-04-27 04:42:00,48.0,45.0,30.21,East,100,3.0,-999.0,87,-99.99,,,-99.99,,2013-04-27 09:42:00,
2013-04-27 04:53:00,48.0,45.0,30.21,ESE,110,3.0,-999.0,87,-99.99,,,-99.99,,2013-04-27 09:53:00,
2013-04-27 05:02:00,48.0,45.0,30.21,North,0,0.0,-999.0,87,-99.99,,,-99.99,,2013-04-27 10:02:00,
2013-04-27 05:12:00,48.0,45.0,30.21,North,0,0.0,-999.0,87,-99.99,,,-99.99,,2013-04-27 10:12:00,
2013-04-27 05:22:00,48.0,45.0,30.20,North,0,0.0,-999.0,87,-99.99,,,-99.99,,2013-04-27 10:22:00,
2013-04-27 05:32:00,48.0,45.0,30.20,North,0,0.0,-999.0,87,-99.99,,,-99.99,,2013-04-27 10:32:00,
2013-04-27 05:42:00,48.0,45.0,30.19,East,90,3.0,-999.0,87,-99.99,,,-99.99,,2013-04-27 10:42:00,
2013-04-27 05:52:00,48.0,45.0,30.19,North,0,0.0,-999.0,87,-99.99,,,-99.99,,2013-04-27 10:52:00,
2013-04-27 06:02:00,48.0,45.0,30.18,East,90,5.0,-999.0,87,-99.99,,,-99.99,,2013-04-27 11:02:00,
2013-04-27 06:11:00,48.0,45.0,30.18,East,90,5.0,-999.0,87,-99.99,,,-99.99,,2013-04-27 11:11:00,
2013-04-27 06:22:00,48.0,45.0,30.18,East,90,3.0,-999.0,87,-99.99,,,-99.99,,2013-04-27 11:22:00,
2013-04-27 06:32:00,48.0,45.0,30.18,East,90,5.0,-999.0,87,-99.99,,,-99.99,,2013-04-27 11:32:00,
2013-04-27 06:41:00,48.0,45.0,30.18,East,100,5.0,-999.0,87,-99.99,,,-99.99,,2013-04-27 11:41:00,
2013-04-27 06:52:00,48.0,45.0,30.18,East,90,5.0,-999.0,87,-99.99,,,-99.99,,2013-04-27 11:52:00,
2013-04-27 07:01:00,48.0,45.0,30.18,East,90,5.0,-999.0,87,-99.99,,,-99.99,,2013-04-27 12:01:00,
2013-04-27 07:11:00,48.0,45.0,30.18,East,90,5.0,-999.0,87,-99.99,,,-99.99,,2013-04-27 12:11:00,
2013-04-27 07:21:00,50.0,45.0,30.18,East,90,5.0,-999.0,81,-99.99,,,-99.99,,2013-04-27 12:21:00,
2013-04-27 07:32:00,50.0,45.0,30.18,East,100,5.0,-999.0,81,-99.99,,,-99.99,,2013-04-27 12:32:00,
2013-04-27 07:42:00,50.0,45.0,30.18,ESE,110,5.0,-999.0,81,-99.99,,,-99.99,,2013-04-27 12:42:00,
2013-04-27 07:52:00,50.0,45.0,30.18,ESE,120,6.0,-999.0,81,-99.99,,,-99.99,,2013-04-27 12:52:00,
2013-04-27 08:02:00,50.0,45.0,30.18,SE,130,6.0,-999.0,81,-99.99,,,-99.99,,2013-04-27 13:02:00,
2013-04-27 08:11:00,50.0,45.0,30.18,SE,130,6.0,-999.0,81,-99.99,,,-99.99,,2013-04-27 13:11:00,
2013-04-27 08:21:00,50.0,45.0,30.18,ESE,120,5.0,-999.0,81,-99.99,,,-99.99,,2013-04-27 13:21:00,
2013-04-27 08:32:00,50.0,45.0,30.18,SE,130,5.0,-999.0,81,-99.99,,,-99.99,,2013-04-27 13:32:00,
2013-04-27 08:41:00,50.0,45.0,30.18,SE,130,5.0,-999.0,81,-99.99,,,-99.99,,2013-04-27 13:41:00,
2013-04-27 08:52:00,50.0,45.0,30.18,ESE,120,5.0,-999.0,81,-99.99,,,-99.99,,2013-04-27 13:52:00,
2013-04-27 09:02:00,50.0,45.0,30.18,ESE,120,3.0,-999.0,81,-99.99,,,-99.99,,2013-04-27 14:02:00,
2013-04-27 09:11:00,50.0,45.0,30.18,ESE,120,3.0,-999.0,81,-99.99,,,-99.99,,2013-04-27 14:11:00,
2013-04-27 09:21:00,52.0,45.0,30.18,ESE,110,5.0,-999.0,76,-99.99,,,-99.99,,2013-04-27 14:21:00,
2013-04-27 09:31:00,50.0,45.0,30.18,ESE,110,5.0,-999.0,81,-99.99,,,-99.99,,2013-04-27 14:31:00,
2013-04-27 09:41:00,50.0,46.0,30.17,East,100,5.0,-999.0,87,-99.99,,,-99.99,,2013-04-27 14:41:00,
2013-04-27 09:52:00,50.0,46.0,30.17,ESE,110,5.0,-999.0,87,-99.99,,,-99.99,,2013-04-27 14:52:00,
2013-04-27 10:01:00,50.0,46.0,30.17,ESE,110,3.0,-999.0,87,-99.99,,,-99.99,,2013-04-27 15:01:00,
2013-04-27 10:11:00,50.0,46.0,30.17,ESE,110,3.0,-999.0,87,-99.99,,,-99.99,,2013-04-27 15:11:00,
2013-04-27 10:21:00,50.0,46.0,30.17,ESE,110,3.0,-999.0,87,-99.99,,,-99.99,,2013-04-27 15:21:00,
2013-04-27 10:33:00,50.0,48.0,30.17,East,80,6.0,-999.0,93,-99.99,,,-99.99,,2013-04-27 15:33:00,
2013-04-27 10:42:00,52.0,48.0,30.17,East,100,6.0,-999.0,87,-99.99,,,-99.99,,2013-04-27 15:42:00,
2013-04-27 10:53:00,50.0,48.0,30.17,East,100,7.0,-999.0,93,-99.99,,,-99.99,,2013-04-27 15:53:00,
2013-04-27 11:03:00,52.0,48.0,30.16,East,80,7.0,-999.0,87,-99.99,,,-99.99,,2013-04-27 16:03:00,
2013-04-27 11:13:00,52.0,48.0,30.16,East,80,7.0,-999.0,87,-99.99,,,-99.99,,2013-04-27 16:13:00,
2013-04-27 11:22:00,52.0,48.0,30.17,East,100,6.0,-999.0,87,-99.99,,,-99.99,,2013-04-27 16:22:00,
2013-04-27 11:32:00,52.0,48.0,30.16,East,80,5.0,-999.0,87,-99.99,,,-99.99,,2013-04-27 16:32:00,
2013-04-27 11:42:00,52.0,48.0,30.16,East,100,5.0,-999.0,87,-99.99,,,-99.99,,2013-04-27 16:42:00,
2013-04-27 11:53:00,52.0,48.0,30.16,East,100,7.0,-999.0,87,-99.99,,,-99.99,,2013-04-27 16:53:00,
2013-04-27 12:02:00,52.0,48.0,30.16,East,80,7.0,-999.0,87,-99.99,,,-99.99,,2013-04-27 17:02:00,
2013-04-27 12:11:00,52.0,48.0,30.16,East,80,7.0,-999.0,87,-99.99,,,-99.99,,2013-04-27 17:11:00,
2013-04-27 12:22:00,52.0,48.0,30.16,East,90,7.0,-999.0,87,-99.99,,,-99.99,,2013-04-27 17:22:00,
2013-04-27 12:32:00,52.0,48.0,30.15,East,100,5.0,-999.0,87,-99.99,,,-99.99,,2013-04-27 17:32:00,
2013-04-27 12:42:00,52.0,48.0,30.15,ESE,110,8.0,-999.0,87,-99.99,,,-99.99,,2013-04-27 17:42:00,
2013-04-27 12:53:00,52.0,48.0,30.14,East,100,5.0,-999.0,87,-99.99,,,-99.99,,2013-04-27 17:53:00,
2013-04-27 13:02:00,54.0,48.0,30.14,East,100,7.0,-999.0,81,-99.99,,,-99.99,,2013-04-27 18:02:00,
2013-04-27 13:11:00,54.0,48.0,30.14,East,100,7.0,-999.0,81,-99.99,,,-99.99,,2013-04-27 18:11:00,
2013-04-27 13:22:00,54.0,48.0,30.13,East,100,7.0,-999.0,81,-99.99,,,-99.99,,2013-04-27 18:22:00,
2013-04-27 13:32:00,54.0,48.0,30.13,ESE,110,3.0,-999.0,81,-99.99,,,-99.99,,2013-04-27 18:32:00,
2013-04-27 13:41:00,54.0,50.0,30.13,ESE,110,5.0,-999.0,87,-99.99,,,-99.99,,2013-04-27 18:41:00,
2013-04-27 13:52:00,54.0,50.0,30.12,East,100,7.0,-999.0,87,-99.99,,,-99.99,,2013-04-27 18:52:00,
2013-04-27 14:02:00,54.0,50.0,30.12,East,90,7.0,-999.0,87,-99.99,,,-99.99,,2013-04-27 19:02:00,
2013-04-27 14:11:00,54.0,50.0,30.12,East,90,7.0,-999.0,87,-99.99,,,-99.99,,2013-04-27 19:11:00,
2013-04-27 14:21:00,54.0,50.0,30.11,ESE,110,6.0,-999.0,87,-99.99,,,-99.99,,2013-04-27 19:21:00,
2013-04-27 14:32:00,54.0,50.0,30.11,ESE,110,6.0,-999.0,87,-99.99,,,-99.99,,2013-04-27 19:32:00,
2013-04-27 14:42:00,54.0,50.0,30.11,East,80,5.0,-999.0,87,-99.99,,,-99.99,,2013-04-27 19:42:00,
2013-04-27 14:53:00,54.0,50.0,30.11,East,90,5.0,-999.0,87,-99.99,,,-99.99,,2013-04-27 19:53:00,
2013-04-27 15:02:00,54.0,50.0,30.10,East,90,7.0,-999.0,87,-99.99,,,-99.99,,2013-04-27 20:02:00,
2013-04-27 15:11:00,54.0,50.0,30.10,East,90,7.0,-999.0,87,-99.99,,,-99.99,,2013-04-27 20:11:00,
2013-04-27 15:21:00,54.0,50.0,30.09,East,90,6.0,-999.0,87,-99.99,,,-99.99,,2013-04-27 20:21:00,
2013-04-27 15:32:00,54.0,50.0,30.09,ENE,70,3.0,-999.0,87,-99.99,,,-99.99,,2013-04-27 20:32:00,
2013-04-27 15:42:00,54.0,50.0,30.08,East,90,6.0,-999.0,87,-99.99,,,-99.99,,2013-04-27 20:42:00,
2013-04-27 15:52:00,54.0,50.0,30.08,East,100,7.0,-999.0,87,-99.99,,,-99.99,,2013-04-27 20:52:00,
2013-04-27 16:02:00,54.0,50.0,30.07,East,90,5.0,-999.0,87,-99.99,,,-99.99,,2013-04-27 21:02:00,
2013-04-27 16:11:00,54.0,50.0,30.07,East,90,5.0,-999.0,87,-99.99,,,-99.99,,2013-04-27 21:11:00,
2013-04-27 16:21:00,54.0,50.0,30.07,East,80,3.0,-999.0,87,-99.99,,,-99.99,,2013-04-27 21:21:00,
2013-04-27 16:33:00,54.0,50.0,30.06,East,90,5.0,-999.0,87,-99.99,,,-99.99,,2013-04-27 21:33:00,
2013-04-27 16:42:00,54.0,50.0,30.06,East,80,3.0,-999.0,87,-99.99,,,-99.99,,2013-04-27 21:42:00,
2013-04-27 16:53:00,54.0,50.0,30.06,NE,50,3.0,-999.0,87,-99.99,,,-99.99,,2013-04-27 21:53:00,
2013-04-27 17:02:00,54.0,50.0,30.06,ENE,60,3.0,-999.0,87,-99.99,,,-99.99,,2013-04-27 22:02:00,
2013-04-27 17:12:00,54.0,50.0,30.06,ENE,60,3.0,-999.0,87,-99.99,,,-99.99,,2013-04-27 22:12:00,
2013-04-27 17:22:00,54.0,50.0,30.05,ENE,70,3.0,-999.0,87,-99.99,,,-99.99,,2013-04-27 22:22:00,
2013-04-27 17:32:00,54.0,50.0,30.05,NE,50,3.0,-999.0,87,0.01,,,-99.99,,2013-04-27 22:32:00,
2013-04-27 17:42:00,54.0,50.0,30.05,NE,40,3.0,-999.0,87,0.01,,,-99.99,,2013-04-27 22:42:00,
2013-04-27 17:52:00,54.0,50.0,30.05,North,0,0.0,-999.0,87,0.02,,,-99.99,,2013-04-27 22:52:00,
2013-04-27 18:02:00,54.0,50.0,30.04,ENE,60,3.0,-999.0,87,0.02,,,-99.99,,2013-04-27 23:02:00,
2013-04-27 18:11:00,54.0,50.0,30.04,ENE,60,3.0,-999.0,87,0.02,,,-99.99,,2013-04-27 23:11:00,
2013-04-27 18:22:00,54.0,50.0,30.04,ENE,60,5.0,-999.0,87,0.01,,,-99.99,,2013-04-27 23:22:00,
2013-04-27 18:32:00,54.0,50.0,30.03,NE,50,3.0,-999.0,87,0.03,,,-99.99,,2013-04-27 23:32:00,
2013-04-27 18:42:00,52.0,50.0,30.03,NE,50,6.0,-999.0,93,0.05,,,-99.99,,2013-04-27 23:42:00,
2013-04-27 18:52:00,52.0,50.0,30.03,NE,50,5.0,-999.0,93,0.06,,,-99.99,,2013-04-27 23:52:00,
2013-04-27 19:01:00,52.0,50.0,30.03,NE,50,3.0,-999.0,93,0.07,,,-99.99,,2013-04-28 00:01:00,
2013-04-27 19:11:00,52.0,50.0,30.03,NE,50,3.0,-999.0,93,0.07,,,-99.99,,2013-04-28 00:11:00,
2013-04-27 19:21:00,52.0,50.0,30.02,North,0,0.0,-999.0,93,-99.99,,,-99.99,,2013-04-28 00:21:00,
2013-04-27 19:31:00,52.0,50.0,30.02,North,0,0.0,-999.0,93,0.01,,,-99.99,,2013-04-28 00:31:00,
2013-04-27 19:42:00,52.0,50.0,30.02,North,0,0.0,-999.0,93,0.01,,,-99.99,,2013-04-28 00:42:00,
2013-04-27 19:52:00,52.0,50.0,30.02,North,0,0.0,-999.0,93,0.01,,,-99.99,,2013-04-28 00:52:00,
2013-04-27 20:01:00,52.0,50.0,30.01,NE,40,3.0,-999.0,93,0.02,,,-99.99,,2013-04-28 01:01:00,
2013-04-27 20:11:00,52.0,50.0,30.01,NE,40,3.0,-999.0,93,0.02,,,-99.99,,2013-04-28 01:11:00,
2013-04-27 20:21:00,52.0,50.0,30.01,NNE,30,3.0,-999.0,93,0.01,,,-99.99,,2013-04-28 01:21:00,
2013-04-27 20:31:00,52.0,50.0,30.01,North,10,3.0,-999.0,93,0.01,,,-99.99,,2013-04-28 01:31:00,
2013-04-27 20:42:00,52.0,50.0,30.01,North,360,3.0,-999.0,93,0.01,,,-99.99,,2013-04-28 01:42:00,
2013-04-27 20:52:00,52.0,50.0,30.01,NNE,20,3.0,-999.0,93,0.01,,,-99.99,,2013-04-28 01:52:00,
2013-04-27 21:02:00,52.0,50.0,30.01,North,0,0.0,-999.0,93,0.02,,,-99.99,,2013-04-28 02:02:00,
2013-04-27 21:12:00,52.0,50.0,30.01,North,0,0.0,-999.0,93,0.02,,,-99.99,,2013-04-28 02:12:00,
2013-04-27 21:22:00,52.0,50.0,30.01,North,0,0.0,-999.0,93,-99.99,,,-99.99,,2013-04-28 02:22:00,
2013-04-27 21:32:00,52.0,50.0,30.01,NNE,20,3.0,-999.0,93,-99.99,,,-99.99,,2013-04-28 02:32:00,
2013-04-27 21:42:00,52.0,50.0,30.01,NNE,20,3.0,-999.0,93,-99.99,,,-99.99,,2013-04-28 02:42:00,
2013-04-27 21:52:00,52.0,50.0,30.01,North,0,0.0,-999.0,93,0.01,,,-99.99,,2013-04-28 02:52:00,
2013-04-27 22:01:00,52.0,50.0,30.01,North,0,0.0,-999.0,93,0.01,,,-99.99,,2013-04-28 03:01:00,
2013-04-27 22:11:00,52.0,50.0,30.01,North,0,0.0,-999.0,93,0.01,,,-99.99,,2013-04-28 03:11:00,
2013-04-27 22:21:00,52.0,50.0,30.01,North,0,0.0,-999.0,93,-99.99,,,-99.99,,2013-04-28 03:21:00,
2013-04-27 22:32:00,52.0,50.0,30.01,North,0,0.0,-999.0,93,-99.99,,,-99.99,,2013-04-28 03:32:00,
2013-04-27 22:42:00,52.0,50.0,30.01,North,0,0.0,-999.0,93,-99.99,,,-99.99,,2013-04-28 03:42:00,
2013-04-27 22:53:00,52.0,50.0,30.00,North,350,3.0,-999.0,93,-99.99,,,-99.99,,2013-04-28 03:53:00,
2013-04-27 23:02:00,52.0,50.0,30.00,North,0,0.0,-999.0,93,-99.99,,,-99.99,,2013-04-28 04:02:00,
2013-04-27 23:13:00,52.0,50.0,30.00,North,0,0.0,-999.0,93,-99.99,,,-99.99,,2013-04-28 04:13:00,
2013-04-27 23:22:00,52.0,50.0,30.00,NNW,340,3.0,-999.0,93,0.01,,,-99.99,,2013-04-28 04:22:00,
2013-04-27 23:32:00,52.0,50.0,29.99,NNW,340,5.0,-999.0,93,0.01,,,-99.99,,2013-04-28 04:32:00,
2013-04-27 23:42:00,52.0,50.0,29.98,NNW,340,3.0,-999.0,93,0.01,,,-99.99,,2013-04-28 04:42:00,
2013-04-27 23:53:00,52.0,50.0,29.98,North,0,0.0,-999.0,93,0.01,,,-99.99,,2013-04-28 04:53:00,